[[{"header":{"parameterUnit":"m.s-1","parameterCategory":1,"la1":30.2991,"la2":30.254,"lo1":-89.0895,"lo2":-89.0444,"dy":0.0017,"dx":0.0017,"nx":28,"ny":28,"refTime":"2024-10-19T09:00:00:Z","depth":0,"parameterNumber":2,"parameterNumberName":"U-component_of_WINDS"},"data":[0,0,0,0,0,0,0,0,0,0,0,0,0,0,0,0,0,0,0,0,0,0,0,0,0,0,0,0,0,0,0,0,0,0,0,0,0,0,0,0,0,0,0,0,0,0,0,0,0,0,0,0,0,0,0,0,0,0,-2.0856,-2.0856,0,-2.0876,-2.0876,-2.0876,-2.0836,-2.0835,-2.0833,-2.0832,-2.0851,-2.0853,-2.0854,0,0,0,0,0,0,0,0,0,0,0,0,0,-2.0782,-2.0784,-2.0856,-2.0856,-2.0856,-2.0876,-2.0876,-2.0876,-2.0836,-2.0835,-2.0833,-2.0832,-2.085,-2.0852,-2.0854,0,0,0,0,0,0,0,0,0,0,0,0,0,-2.0809,-2.0784,-2.0856,-2.0839,-2.0837,-2.0876,-2.0876,-2.0876,-2.0837,-2.0835,-2.0833,-2.0831,-2.085,-2.0852,-2.0855,-2.091,0,0,-2.0863,-2.0864,0,0,0,0,0,0,0,0,-2.0808,-2.0812,-2.0841,-2.084,-2.0839,-2.0851,-2.0857,-2.0888,-2.0837,-2.0837,-2.0832,-2.083,-2.0853,-2.0855,-2.0863,-2.0911,-2.0912,-2.0863,-2.0864,-2.0865,-2.0866,0,0,0,0,0,0,0,-2.0806,-2.0811,-2.0864,-2.0842,-2.084,-2.083,-2.0831,-2.0862,-2.0855,-2.0837,-2.0834,-2.0837,-2.0851,-2.086,-2.0863,-2.0912,-2.0863,-2.0865,-2.0867,-2.0868,-2.1007,-2.1009,0,0,0,0,0,0,-2.0806,-2.081,-2.0863,-2.0864,-2.0818,-2.0833,-2.0835,-2.0849,-2.0855,-2.0854,-2.0839,-2.0835,-2.0857,-2.086,-2.0863,-2.0928,-2.0865,-2.0868,-2.0869,-2.1004,-2.1007,-2.1009,0,0,0,0,0,0,-2.0805,-2.0812,-2.0862,-2.0836,-2.0842,-2.0836,-2.0853,-2.0851,-2.0859,-2.0856,-2.0855,-2.0849,-2.0855,-2.086,-2.0899,-2.0928,-2.0869,-2.0871,-2.1002,-2.1005,-2.1008,-2.1059,0,0,0,0,0,0,-2.0803,-2.0811,-2.0832,-2.0837,-2.0843,-2.0898,-2.0855,-2.0853,-2.0864,-2.086,-2.0866,-2.0865,-2.0854,-2.0895,-2.0901,-2.0931,-2.0873,-2.0999,-2.1003,-2.1007,-2.1054,-2.1063,-2.1071,0,0,0,0,0,-2.08,-2.0845,-2.0834,-2.084,-2.087,-2.09,-2.0903,-2.0891,-2.0867,-2.0888,-2.0886,-2.0865,-2.0925,-2.09,-2.0906,-2.0937,-2.0997,-2.1002,-2.1007,-2.1051,-2.1061,-2.1071,0,0,0,0,0,0,-2.0843,-2.0846,-2.0833,-2.088,-2.089,-2.0893,-2.0919,-2.0902,-2.0919,-2.0914,-2.0897,-2.0899,-2.0941,-2.0943,-2.0915,-2.0991,-2.0957,-2.0963,-2.0988,-2.0998,-2.1006,-2.1004,-2.0876,0,0,0,0,0,-2.0859,-2.0883,-2.0883,-2.0926,-2.0931,-2.0925,-2.0937,-2.0927,-2.0936,-2.0939,-2.094,-2.095,-2.0971,-2.0985,-2.1004,-2.1055,-2.1055,-2.1079,-2.1088,-2.1094,-2.11,-2.1127,-2.1137,-2.1025,-2.1025,-2.1025,0,0,-2.089,-2.0894,-2.091,-2.0934,-2.0941,-2.0966,-2.0928,-2.0956,-2.0975,-2.0943,-2.098,-2.0982,-2.0991,-2.1037,-2.1057,-2.1039,-2.1131,-2.1101,-2.1106,-2.1108,-2.1133,-2.1144,-2.1153,-2.1028,-2.1028,-2.1027,0,0,-2.0959,-2.0965,-2.1001,-2.1009,-2.1019,-2.1014,-2.1023,-2.1029,-2.1028,-2.1066,-2.1043,-2.1064,-2.1101,-2.1108,-2.1117,-2.1191,-2.1172,-2.1198,-2.1241,-2.1268,-2.1276,-2.1284,-2.131,-2.132,-2.1204,-2.1204,-2.1204,0,-2.0996,-2.1034,-2.1021,-2.1051,-2.1063,-2.1037,-2.1073,-2.108,-2.1096,-2.1105,-2.1086,-2.1131,-2.1136,-2.1182,-2.1201,-2.1209,-2.1218,-2.1197,-2.1276,-2.1284,-2.1291,-2.1315,-2.1325,-2.1207,-2.1207,-2.1206,-2.1206,0,-2.1079,-2.1106,-2.1133,-2.115,-2.1165,-2.1198,-2.1189,-2.1206,-2.1195,-2.1192,-2.123,-2.1235,-2.1255,-2.1265,-2.1254,-2.1311,-2.13,-2.1279,-2.1244,-2.1305,-2.1328,-2.1337,-2.1211,-2.121,-2.1209,-2.1208,0,0,-2.1174,-2.1185,-2.1195,-2.1203,-2.1213,-2.1233,-2.1265,-2.1285,-2.1299,-2.1312,-2.1338,-2.137,-2.1351,-2.1361,-2.1351,-2.1374,-2.1433,-2.135,-2.135,-2.1365,-2.1495,-2.151,-2.1521,-2.1421,-2.1422,-2.1424,-2.1494,0,-2.1243,-2.1298,-2.1288,-2.1342,-2.1366,-2.1343,-2.1371,-2.138,-2.1379,-2.1399,-2.1397,-2.142,-2.1394,-2.1399,-2.1422,-2.1421,-2.1458,-2.1416,-2.1444,-2.1445,-2.1441,-2.1533,-2.1549,-2.1615,-2.1503,-2.1504,-2.1505,0,-2.1329,-2.1346,-2.1402,-2.141,-2.142,-2.1445,-2.1463,-2.1483,-2.1493,-2.149,-2.1502,-2.1488,-2.152,-2.1486,-2.1529,-2.15,-2.1511,-2.1513,-2.1515,-2.1516,-2.1478,-2.1536,-2.1635,-2.1645,-2.1519,-2.1518,-2.1517,0,-2.1393,-2.1429,-2.1467,-2.1475,-2.1484,-2.1503,-2.1507,-2.1516,-2.1529,-2.1545,-2.1553,-2.1572,-2.1582,-2.1597,-2.1588,-2.1565,-2.1633,-2.1598,-2.1631,-2.1632,-2.1646,-2.1645,-2.1747,-2.1655,-2.1655,-2.1654,-2.1654,0,-2.1469,-2.1504,-2.1496,-2.152,-2.1558,-2.1547,-2.1586,-2.1588,-2.1596,-2.1619,-2.16,-2.1622,-2.161,-2.1631,-2.1625,-2.1662,-2.1666,-2.1665,-2.1663,-2.1666,-2.1666,-2.1672,-2.1667,-2.1657,-2.1656,-2.1656,-2.1655,0,-2.1545,-2.1541,-2.1582,-2.1588,-2.1591,-2.1619,-2.1624,-2.1646,-2.1644,-2.1674,-2.168,-2.1677,-2.1701,-2.1695,-2.1721,-2.1716,-2.1762,-2.1755,-2.1759,-2.1757,-2.179,-2.1787,-2.1899,-2.1913,-2.1813,-2.1814,-2.1814,0,-2.1594,-2.1621,-2.1631,-2.1645,-2.1652,-2.1675,-2.1689,-2.1679,-2.1694,-2.1708,-2.1729,-2.1751,-2.1769,-2.1809,-2.1808,-2.1828,-2.182,-2.1859,-2.1823,-2.1826,-2.182,-2.1818,-2.1821,-2.1865,-2.1866,-2.1867,-2.1868,0,-2.1681,-2.1678,-2.1698,-2.1718,-2.1735,-2.175,-2.1764,-2.1777,-2.1768,-2.1785,-2.181,-2.1824,-2.1852,-2.1874,-2.1893,-2.1897,-2.1881,-2.188,-2.1888,-2.1891,-2.1892,-2.1892,-2.1777,-2.1877,-2.1876,-2.1875,-2.1875,-2.1874,-2.1744,-2.1767,-2.1777,-2.1801,-2.181,-2.1824,-2.1845,-2.1846,-2.1867,-2.1889,-2.1882,-2.191,-2.1921,-2.1944,-2.1951,-2.1973,-2.1958,-2.1971,-2.1974,-2.1977,-2.1981,-2.189,-2.1976,-2.1976,-2.1976,-2.1976,-2.1976,0,-2.1829,-2.1835,-2.1857,-2.1877,-2.1895,-2.188,-2.1894,-2.1911,-2.1936,-2.1948,-2.1966,-2.1995,-2.2017,-2.2019,-2.204,-2.2058,-2.2051,-2.2063,-2.2061,-2.2063,-2.1993,-2.1983,-2.2068,-2.2068,-2.2068,-2.2068,-2.2068,-2.2068,-2.1875,-2.1912,-2.1911,-2.1953,-2.1959,-2.1988,-2.1997,-2.2009,-2.2018,-2.2052,-2.2071,-2.2072,-2.208,-2.2102,-2.2121,-2.2122,-2.213,-2.2145,-2.2142,-2.2077,-2.2067,-2.2059,-2.2049,-2.2147,-2.2147,-2.221,-2.221,-2.2211]},{"header":{"parameterUnit":"m.s-1","parameterCategory":1,"la1":30.2991,"la2":30.254,"lo1":-89.0895,"lo2":-89.0444,"dy":0.0017,"dx":0.0017,"nx":28,"ny":28,"refTime":"2024-10-19T09:00:00:Z","depth":0,"parameterNumber":3,"parameterNumberName":"V-component_of_WINDS"},"data":[0,0,0,0,0,0,0,0,0,0,0,0,0,0,0,0,0,0,0,0,0,0,0,0,0,0,0,0,0,0,0,0,0,0,0,0,0,0,0,0,0,0,0,0,0,0,0,0,0,0,0,0,0,0,0,0,0,0,-2.3777,-2.3777,0,-2.3838,-2.3839,-2.384,-2.3845,-2.3844,-2.3843,-2.3843,-2.3903,-2.3906,-2.3908,0,0,0,0,0,0,0,0,0,0,0,0,0,-2.3661,-2.3663,-2.3776,-2.3777,-2.3778,-2.3838,-2.3839,-2.384,-2.3845,-2.3844,-2.3843,-2.3842,-2.3903,-2.3905,-2.3908,0,0,0,0,0,0,0,0,0,0,0,0,0,-2.3715,-2.3663,-2.3776,-2.3788,-2.3789,-2.3838,-2.3839,-2.384,-2.3845,-2.3844,-2.3843,-2.3842,-2.3902,-2.3905,-2.3908,-2.3949,0,0,-2.3919,-2.392,0,0,0,0,0,0,0,0,-2.3712,-2.372,-2.3785,-2.3787,-2.3789,-2.3833,-2.3821,-2.3877,-2.3845,-2.3824,-2.3843,-2.3841,-2.3881,-2.3886,-2.3899,-2.3952,-2.3955,-2.3919,-2.3921,-2.3922,-2.3923,0,0,0,0,0,0,0,-2.3708,-2.3717,-2.3801,-2.3786,-2.3788,-2.3789,-2.3796,-2.3831,-2.3857,-2.3826,-2.3826,-2.3833,-2.3881,-2.3896,-2.3901,-2.3956,-2.3919,-2.3922,-2.3924,-2.3925,-2.4045,-2.4046,0,0,0,0,0,0,-2.3703,-2.3714,-2.3799,-2.3803,-2.3747,-2.3792,-2.38,-2.382,-2.3857,-2.3861,-2.3834,-2.3833,-2.3891,-2.3897,-2.3903,-2.3953,-2.3922,-2.3926,-2.3928,-2.4044,-2.4046,-2.4047,0,0,0,0,0,0,-2.37,-2.371,-2.3796,-2.3758,-2.377,-2.3795,-2.3818,-2.3821,-2.3836,-2.3863,-2.3868,-2.3845,-2.389,-2.3898,-2.3938,-2.3955,-2.3927,-2.393,-2.4043,-2.4045,-2.4046,-2.4054,0,0,0,0,0,0,-2.3697,-2.3709,-2.3726,-2.3759,-2.3772,-2.3831,-2.3819,-2.3823,-2.3842,-2.3842,-2.3874,-2.3878,-2.389,-2.3933,-2.3941,-2.396,-2.3933,-2.4041,-2.4044,-2.4046,-2.4052,-2.4056,-2.4059,0,0,0,0,0,-2.3693,-2.3725,-2.3726,-2.3737,-2.3792,-2.3832,-2.3839,-2.3852,-2.3844,-2.386,-2.3877,-2.3877,-2.3952,-2.3937,-2.3946,-2.3966,-2.404,-2.4043,-2.4045,-2.4051,-2.4055,-2.4059,0,0,0,0,0,0,-2.3692,-2.3729,-2.3731,-2.3775,-2.3801,-2.3833,-2.3853,-2.3857,-2.3884,-2.3882,-2.3897,-2.3904,-2.3944,-2.3959,-2.3941,-2.4008,-2.3995,-2.4,-2.3996,-2.4001,-2.4004,-2.3999,-2.3936,0,0,0,0,0,-2.3697,-2.3726,-2.3757,-2.3793,-2.3806,-2.3827,-2.3845,-2.3853,-2.388,-2.389,-2.3911,-2.3935,-2.3965,-2.3984,-2.4012,-2.4055,-2.4062,-2.4073,-2.4076,-2.4079,-2.4083,-2.4107,-2.4112,-2.4055,-2.4055,-2.4055,0,0,-2.3707,-2.3731,-2.3749,-2.3793,-2.3814,-2.3844,-2.3836,-2.3868,-2.389,-2.3895,-2.3934,-2.395,-2.3978,-2.402,-2.4039,-2.4034,-2.41,-2.4082,-2.4084,-2.4086,-2.411,-2.4115,-2.412,-2.4057,-2.4057,-2.4057,0,0,-2.3741,-2.3762,-2.3794,-2.3816,-2.3847,-2.3862,-2.3869,-2.3902,-2.3913,-2.3952,-2.3957,-2.3983,-2.4033,-2.4053,-2.407,-2.4113,-2.4114,-2.4122,-2.4139,-2.4162,-2.4167,-2.4171,-2.4186,-2.4191,-2.4126,-2.4126,-2.4126,0,-2.3749,-2.3795,-2.381,-2.3842,-2.3862,-2.3869,-2.3901,-2.3921,-2.3959,-2.3972,-2.3966,-2.403,-2.4049,-2.4096,-2.4107,-2.412,-2.4129,-2.4118,-2.4165,-2.4169,-2.4173,-2.4188,-2.4194,-2.4127,-2.4126,-2.4126,-2.4126,0,-2.3804,-2.3836,-2.3858,-2.3896,-2.3918,-2.395,-2.397,-2.399,-2.3997,-2.4012,-2.4052,-2.4077,-2.411,-2.4122,-2.4129,-2.417,-2.4166,-2.4162,-2.415,-2.4179,-2.4193,-2.4199,-2.4128,-2.4127,-2.4127,-2.4127,0,0,-2.3837,-2.3885,-2.3893,-2.3911,-2.3947,-2.3971,-2.4004,-2.4038,-2.4055,-2.4082,-2.4109,-2.4152,-2.4149,-2.4168,-2.4177,-2.4198,-2.423,-2.4192,-2.4193,-2.4198,-2.4277,-2.428,-2.4286,-2.4232,-2.4233,-2.4234,-2.4275,0,-2.3875,-2.3934,-2.3949,-2.3999,-2.4028,-2.4036,-2.4064,-2.4089,-2.4104,-2.4131,-2.4147,-2.4178,-2.4172,-2.4183,-2.4204,-2.4222,-2.4246,-2.4219,-2.4257,-2.4258,-2.4249,-2.4293,-2.4296,-2.4333,-2.4281,-2.4282,-2.4282,0,-2.3926,-2.3956,-2.4009,-2.4042,-2.4055,-2.408,-2.4113,-2.4138,-2.4167,-2.4176,-2.4199,-2.4206,-2.424,-2.4226,-2.4273,-2.4254,-2.427,-2.4282,-2.4283,-2.4287,-2.4271,-2.4298,-2.4346,-2.4351,-2.4291,-2.429,-2.429,0,-2.3945,-2.3998,-2.4037,-2.4052,-2.4091,-2.4109,-2.4126,-2.4154,-2.4173,-2.4202,-2.4214,-2.4246,-2.4263,-2.4287,-2.4303,-2.4292,-2.4348,-2.4336,-2.4357,-2.4356,-2.4367,-2.4366,-2.4418,-2.4379,-2.4379,-2.4379,-2.4378,0,-2.3986,-2.4018,-2.4046,-2.407,-2.4106,-2.4123,-2.4158,-2.4175,-2.42,-2.4227,-2.4235,-2.426,-2.4279,-2.4307,-2.4319,-2.4356,-2.4363,-2.4372,-2.4374,-2.4371,-2.437,-2.4381,-2.4379,-2.438,-2.438,-2.4379,-2.4379,0,-2.4012,-2.4033,-2.4076,-2.411,-2.4119,-2.4144,-2.4174,-2.4197,-2.4213,-2.4246,-2.4255,-2.428,-2.4313,-2.4331,-2.4372,-2.438,-2.4421,-2.4423,-2.4412,-2.4413,-2.4433,-2.443,-2.4493,-2.4502,-2.4457,-2.4457,-2.4458,0,-2.4036,-2.4062,-2.4099,-2.4118,-2.4136,-2.4166,-2.4187,-2.4205,-2.4226,-2.4261,-2.428,-2.4313,-2.4341,-2.4393,-2.4414,-2.4446,-2.4448,-2.4468,-2.4453,-2.4448,-2.4448,-2.4446,-2.4449,-2.447,-2.4471,-2.4471,-2.4471,0,-2.4077,-2.4086,-2.4116,-2.4149,-2.4174,-2.4201,-2.4228,-2.4243,-2.4265,-2.4288,-2.4322,-2.4344,-2.4387,-2.442,-2.4453,-2.447,-2.4474,-2.4476,-2.4483,-2.4479,-2.4471,-2.4475,-2.4419,-2.4474,-2.4474,-2.4474,-2.4474,-2.4473,-2.4103,-2.4126,-2.4156,-2.4189,-2.4211,-2.4237,-2.426,-2.428,-2.4309,-2.4345,-2.4354,-2.439,-2.4419,-2.4464,-2.4482,-2.451,-2.4507,-2.4516,-2.4518,-2.452,-2.4521,-2.4467,-2.4517,-2.4516,-2.4516,-2.4516,-2.4516,0,-2.4144,-2.4164,-2.4194,-2.4232,-2.4258,-2.4261,-2.4291,-2.4312,-2.4344,-2.4371,-2.4399,-2.4438,-2.4471,-2.4495,-2.4528,-2.4546,-2.4549,-2.4554,-2.4553,-2.4556,-2.4522,-2.4513,-2.4551,-2.4551,-2.4551,-2.4551,-2.4551,-2.4551,-2.4168,-2.4207,-2.422,-2.427,-2.429,-2.4326,-2.4343,-2.4366,-2.4387,-2.4431,-2.4459,-2.4475,-2.4501,-2.4536,-2.4566,-2.4572,-2.4584,-2.4589,-2.4595,-2.4563,-2.4559,-2.4555,-2.4547,-2.4591,-2.4591,-2.4627,-2.4627,-2.4628]}]]